Amsterdam, Netherlands

12:56 AM CET on December 15, 2019 (GMT +0100)
Schiphol

Weather History for EHAM - October, 2019

Change the Weather History Date:

Thursday, October 24, 2019

  Actual Average Record
Temperature  
Mean Temperature 59 °F -  
Max Temperature 66 °F 50 °F 62 °F (2004)
Min Temperature 52 °F 40 °F 26 °F (2003)
Degree Days  
Heating Degree Days 6    
Growing Degree Days 9 (Base 50)    
Moisture  
Dew Point 54 °F    
Average Humidity 86    
Maximum Humidity 100    
Minimum Humidity 56    
Precipitation  
Precipitation 0.04 in - - ()
Sea Level Pressure  
Sea Level Pressure 29.71 in    
Wind  
Wind Speed 8 mph ()    
Max Wind Speed 24 mph    
Max Gust Speed 30 mph    
Visibility 6.2 miles    
Events Rain    
Averages and records for this station are not official NWS values.
T = Trace of Precipitation, MM = Missing Value Source: Averaged Metar Reports

Daily Weather History Graph

Daily Weather History Graph

Search for Another Location

Airport or City:

Astronomy

Oct. 24, 2019 Rise Set
Actual Time 8:21 AM CEST 6:28 PM CEST
Civil Twilight 7:46 AM CEST 7:03 PM CEST
Nautical Twilight 7:06 AM CEST 7:42 PM CEST
Astronomical Twilight 6:27 AM CEST 8:21 PM CEST
Moon 2:43 AM CEST (10/24) 5:28 PM CEST (10/24)
Length of Visible Light 11h 16m
Length of Day
10h 06m
Waning Crescent, 19% of the Moon is Illuminated
Oct 24
Waning Crescent
Oct 28
New
Nov 4
First Quarter
Nov 12
Full
Nov 19
Last Quarter

Hourly Weather History & Observations

Time (CEST) Temp. Dew Point Humidity Pressure Visibility Wind Dir Wind Speed Gust Speed Precip Events Conditions
12:25 AM 53.6 °F 53.6 °F 100% 29.77 in 4.3 mi East 4.6 mph - N/A   Unknown
12:55 AM 53.6 °F 53.6 °F 100% 29.74 in 4.3 mi ENE 6.9 mph - N/A   Unknown
1:25 AM 53.6 °F 51.8 °F 94% 29.74 in 3.7 mi SSE 3.5 mph - N/A   Unknown
1:55 AM 53.6 °F 53.6 °F 100% 29.74 in 3.7 mi East 4.6 mph - N/A   Unknown
2:00 AM 54 °F 53 °F 95% 29.75 in 3 mi East 4.5 mph - -   Mist
2:25 AM 53.6 °F 53.6 °F 100% 29.74 in 3.7 mi SE 5.8 mph - N/A   Unknown
2:55 AM 55.4 °F 53.6 °F 94% 29.74 in 3.7 mi SSE 6.9 mph - N/A   Unknown
3:00 AM 54 °F 53 °F 95% 29.74 in 4 mi SSE 6.7 mph - -   Mist
3:25 AM 53.6 °F 53.6 °F 100% 29.71 in 4.3 mi SSE 6.9 mph - N/A   Unknown
3:55 AM 53.6 °F 53.6 °F 100% 29.71 in 4.3 mi SE 4.6 mph - N/A   Unknown
4:00 AM 54 °F 53 °F 95% 29.73 in 4 mi SSE 6.7 mph - -   Mist
4:25 AM 53.6 °F 51.8 °F 94% 29.71 in 4.3 mi South 4.6 mph - N/A   Unknown
4:55 AM 53.6 °F 51.8 °F 94% 29.68 in 4.3 mi SE 3.5 mph - N/A   Unknown
5:25 AM 53.6 °F 51.8 °F 94% 29.68 in 4.3 mi South 5.8 mph - N/A   Unknown
5:55 AM 53.6 °F 53.6 °F 100% 29.71 in 4.3 mi South 9.2 mph - N/A   Unknown
6:25 AM 55.4 °F 53.6 °F 94% 29.68 in 5.0 mi South 8.1 mph - N/A   Unknown
6:55 AM 53.6 °F 53.6 °F 100% 29.68 in 5.0 mi SSE 4.6 mph - N/A   Unknown
7:00 AM 54 °F 53 °F 94% 29.70 in 4 mi South 4.5 mph - -   Mist
7:25 AM 53.6 °F 53.6 °F 100% 29.68 in 5.0 mi SSE 5.8 mph - N/A   Unknown
7:55 AM 53.6 °F 53.6 °F 100% 29.68 in 5.0 mi SSE 5.8 mph - N/A   Unknown
8:00 AM 54 °F 53 °F 95% 29.69 in 4 mi SSE 6.7 mph - -   Mist
8:25 AM 55.4 °F 53.6 °F 94% 29.68 in 4.3 mi SSE 5.8 mph - N/A   Unknown
8:55 AM 55.4 °F 53.6 °F 94% 29.68 in 4.3 mi SSE 8.1 mph - N/A   Unknown
9:00 AM 55 °F 54 °F 93% 29.70 in 4 mi SSE 6.7 mph - -   Mist
9:25 AM 55.4 °F 53.6 °F 94% 29.71 in 5.0 mi South 9.2 mph - N/A   Unknown
9:55 AM 55.4 °F 53.6 °F 94% 29.68 in 5.0 mi South 6.9 mph - N/A   Light Drizzle
10:00 AM 56 °F 54 °F 93% 29.70 in 6 mi South 6.7 mph - - Rain Light Rain Showers
10:25 AM 57.2 °F 55.4 °F 94% 29.68 in - South 6.9 mph - N/A   Clear
10:55 AM 57.2 °F 55.4 °F 94% 29.68 in - SSE 4.6 mph - N/A   Clear
11:00 AM 58 °F 55 °F 86% 29.69 in 7 mi SSE 4.5 mph - - Rain Rain
11:25 AM 57.2 °F 55.4 °F 94% 29.68 in - South 6.9 mph - N/A   Clear
12:25 PM 59.0 °F 55.4 °F 88% 29.68 in 6.2 mi SSE 9.2 mph - N/A Rain Light Rain
12:55 PM 59.0 °F 55.4 °F 88% 29.68 in - South 11.5 mph - N/A   Clear
1:00 PM 60 °F 56 °F 83% 29.70 in 9 mi South 11.2 mph - - Rain Rain
1:25 PM 60.8 °F 55.4 °F 82% 29.68 in - South 12.7 mph - N/A   Clear
1:55 PM 62.6 °F 55.4 °F 77% 29.68 in - South 16.1 mph - N/A   Clear
2:00 PM 63 °F 56 °F 70% 29.69 in 14 mi South 15.7 mph - -   Partly Cloudy
2:25 PM 64.4 °F 55.4 °F 73% 29.68 in - South 16.1 mph - N/A   Clear
2:55 PM 64.4 °F 55.4 °F 73% 29.68 in 6.2 mi SSW 15.0 mph - N/A   Partly Cloudy
3:00 PM 66 °F 56 °F 62% 29.68 in 19 mi South 15.7 mph - -   Partly Cloudy
3:25 PM 66.2 °F 55.4 °F 68% 29.68 in 6.2 mi SSW 17.3 mph - N/A   Partly Cloudy
3:55 PM 66.2 °F 55.4 °F 68% 29.68 in 6.2 mi SSW 18.4 mph - N/A   Partly Cloudy
4:00 PM 66 °F 54 °F 56% 29.68 in 22 mi SSW 20.1 mph - -   Partly Cloudy
4:25 PM 66.2 °F 53.6 °F 64% 29.68 in 6.2 mi SSW 20.7 mph - N/A   Partly Cloudy
4:55 PM 64.4 °F 51.8 °F 64% 29.65 in 6.2 mi SSW 24.2 mph - N/A   Partly Cloudy
5:25 PM 64.4 °F 53.6 °F 68% 29.68 in 6.2 mi SSW 18.4 mph - N/A   Partly Cloudy
5:55 PM 62.6 °F 53.6 °F 72% 29.68 in 6.2 mi SSW 17.3 mph - N/A   Partly Cloudy
6:00 PM 63 °F 53 °F 61% 29.69 in 28 mi SSW 15.7 mph - -   Partly Cloudy
6:25 PM 62.6 °F 51.8 °F 68% 29.68 in 6.2 mi SSW 16.1 mph - N/A   Partly Cloudy
6:55 PM 60.8 °F 53.6 °F 77% 29.71 in 6.2 mi SSW 17.3 mph - N/A   Partly Cloudy
7:00 PM 61 °F 53 °F 67% 29.72 in 28 mi SSW 17.9 mph - -   Partly Cloudy
7:25 PM 60.8 °F 51.8 °F 72% 29.71 in 6.2 mi SSW 19.6 mph - N/A   Partly Cloudy
8:00 PM 62 °F 53 °F 63% 29.73 in 28 mi SSW 20.1 mph - -   Partly Cloudy
8:25 PM 60.8 °F 53.6 °F 77% 29.71 in 4.3 mi SSW 13.8 mph - N/A Rain Light Rain Showers
8:55 PM 59.0 °F 55.4 °F 88% 29.74 in 6.2 mi SW 20.7 mph - N/A Rain Light Rain Showers
9:00 PM 58 °F 54 °F 83% 29.76 in 16 mi WSW 22.4 mph - - Rain Light Rain Showers
9:25 PM 55.4 °F 53.6 °F 94% 29.77 in 6.2 mi WSW 18.4 mph 29.9 mph N/A   Scattered Clouds
9:55 PM 55.4 °F 51.8 °F 88% 29.77 in 6.2 mi WSW 12.7 mph - N/A   Scattered Clouds
10:00 PM 55 °F 51 °F 83% 29.79 in 16 mi WSW 13.4 mph - - Rain Rain
10:25 PM 55.4 °F 51.8 °F 88% 29.80 in 6.2 mi SW 13.8 mph - N/A   Partly Cloudy
10:55 PM 55.4 °F 51.8 °F 88% 29.80 in 6.2 mi SW 11.5 mph - N/A   Scattered Clouds
11:00 PM 55 °F 52 °F 88% 29.81 in 15 mi SSW 11.2 mph - -   Partly Cloudy
11:25 PM 55.4 °F 53.6 °F 94% 29.80 in 6.2 mi South 10.4 mph - N/A   Mostly Cloudy
11:55 PM 55.4 °F 53.6 °F 94% 29.83 in 6.2 mi SSW 13.8 mph - N/A   Mostly Cloudy